Radiation Dose at Monitoring Post of Fukushima Daini Nuclear Power Station
Date,Time,MP-1(microSv/h),MP-2(microSv/h),MP-3(microSv/h),MP-4(microSv/h),MP-5(microSv/h),MP-6(microSv/h),MP-7(microSv/h),Wind Direction,Wind Velocity(m/s),Rain
2015/05/17,00:00,0.542,0.328,0.573,0.535,0.475,0.248,0.222,north-northeast,4.3,No
2015/05/17,00:10,0.540,0.326,0.574,0.536,0.470,0.249,0.221,north,4.9,Yes
2015/05/17,00:20,0.545,0.326,0.573,0.532,0.475,0.248,0.222,north,5.5,No
2015/05/17,00:30,0.539,0.327,0.574,0.535,0.471,0.249,0.220,north-northwest,5.6,No
2015/05/17,00:40,0.545,0.327,0.573,0.533,0.475,0.248,0.220,north,5.5,No
2015/05/17,00:50,0.541,0.328,0.576,0.537,0.472,0.249,0.221,north,5.7,No
2015/05/17,01:00,0.545,0.327,0.572,0.532,0.474,0.247,0.221,north,5.1,No
2015/05/17,01:10,0.541,0.327,0.576,0.532,0.472,0.248,0.220,north,4.7,No
2015/05/17,01:20,0.545,0.325,0.572,0.534,0.473,0.248,0.220,north,4.9,No
2015/05/17,01:30,0.540,0.326,0.576,0.537,0.471,0.248,0.222,north,2.8,No
2015/05/17,01:40,0.545,0.326,0.569,0.531,0.472,0.248,0.220,north,0.9,No
2015/05/17,01:50,0.540,0.326,0.575,0.536,0.470,0.248,0.220,east-northeast,1.8,No
2015/05/17,02:00,0.545,0.326,0.571,0.532,0.472,0.249,0.221,north-northeast,1.1,No
2015/05/17,02:10,0.538,0.327,0.576,0.535,0.471,0.247,0.220,northeast,1.1,No
2015/05/17,02:20,0.544,0.327,0.572,0.533,0.472,0.248,0.220,-,CALM,No
2015/05/17,02:30,0.541,0.326,0.575,0.536,0.473,0.248,0.221,-,CALM,No
2015/05/17,02:40,0.543,0.326,0.571,0.531,0.470,0.248,0.220,south,0.6,No
2015/05/17,02:50,0.543,0.327,0.574,0.535,0.473,0.248,0.219,south-southwest,1.1,No
2015/05/17,03:00,0.544,0.327,0.572,0.532,0.469,0.248,0.220,south,0.7,No
2015/05/17,03:10,0.541,0.326,0.574,0.535,0.473,0.247,0.220,south-southwest,1.9,No
2015/05/17,03:20,0.542,0.326,0.570,0.531,0.471,0.248,0.219,south-southwest,1.9,No
2015/05/17,03:30,0.542,0.326,0.576,0.537,0.473,0.248,0.220,south,2.1,No
2015/05/17,03:40,0.543,0.327,0.572,0.531,0.471,0.248,0.220,south-southwest,2.2,No
2015/05/17,03:50,0.544,0.327,0.577,0.536,0.474,0.248,0.219,south,2.2,No
2015/05/17,04:00,0.544,0.328,0.572,0.532,0.472,0.247,0.222,south,2.2,No
2015/05/17,04:10,0.544,0.325,0.577,0.534,0.472,0.248,0.220,south-southwest,1.4,No
2015/05/17,04:20,0.543,0.326,0.572,0.533,0.471,0.247,0.220,south,1.9,No
2015/05/17,04:30,0.543,0.326,0.576,0.534,0.471,0.247,0.220,south-southwest,1.5,No
2015/05/17,04:40,0.542,0.327,0.571,0.532,0.473,0.247,0.219,south-southwest,1.9,No
2015/05/17,04:50,0.542,0.324,0.576,0.533,0.470,0.249,0.221,south,1.1,No
2015/05/17,05:00,0.545,0.328,0.571,0.535,0.474,0.248,0.220,south,1.0,No
2015/05/17,05:10,0.542,0.325,0.575,0.531,0.471,0.248,0.221,-,CALM,No
2015/05/17,05:20,0.545,0.329,0.574,0.535,0.475,0.248,0.222,-,CALM,No
2015/05/17,05:30,0.541,0.326,0.573,0.531,0.470,0.248,0.221,south,1.1,No
2015/05/17,05:40,0.545,0.327,0.574,0.536,0.474,0.248,0.220,south,1.2,No
2015/05/17,05:50,0.541,0.327,0.573,0.532,0.469,0.248,0.220,-,CALM,No
2015/05/17,06:00,0.546,0.327,0.576,0.536,0.473,0.247,0.221,south,0.5,No
2015/05/17,06:10,0.539,0.326,0.572,0.533,0.469,0.249,0.220,south,0.5,No
2015/05/17,06:20,0.546,0.327,0.576,0.536,0.471,0.249,0.221,west-northwest,1.1,No
2015/05/17,06:30,0.540,0.324,0.570,0.532,0.469,0.247,0.220,northwest,1.3,No
2015/05/17,06:40,0.546,0.326,0.574,0.535,0.472,0.249,0.219,west,1.6,No
2015/05/17,06:50,0.539,0.324,0.571,0.530,0.469,0.247,0.219,west,4.1,No
2015/05/17,07:00,0.543,0.325,0.568,0.534,0.474,0.249,0.220,northwest,2.6,No
2015/05/17,07:10,0.541,0.326,0.576,0.531,0.471,0.249,0.219,north,2.2,No
2015/05/17,07:20,0.540,0.326,0.569,0.527,0.470,0.249,0.218,-,CALM,No
2015/05/17,07:30,0.544,0.323,0.564,0.534,0.473,0.248,0.218,southwest,1.2,No
2015/05/17,07:40,0.541,0.326,0.573,0.531,0.468,0.248,0.219,south-southwest,1.9,No
2015/05/17,07:50,0.543,0.327,0.574,0.529,0.473,0.247,0.222,south-southeast,1.4,No
2015/05/17,08:00,0.545,0.325,0.569,0.528,0.471,0.247,0.220,south,2.8,No
2015/05/17,08:10,0.539,0.325,0.571,0.535,0.467,0.249,0.220,south-southeast,3.1,No
2015/05/17,08:20,0.535,0.323,0.578,0.532,0.470,0.247,0.219,southeast,4.2,No
2015/05/17,08:30,0.539,0.324,0.571,0.531,0.474,0.248,0.219,southeast,3.7,No
2015/05/17,08:40,0.547,0.323,0.573,0.529,0.468,0.249,0.220,southeast,3.9,No
2015/05/17,08:50,0.544,0.323,0.579,0.527,0.466,0.248,0.221,southeast,2.2,No
2015/05/17,09:00,0.541,0.324,0.573,0.527,0.471,0.248,0.221,southeast,2.2,No
2015/05/17,09:10,0.536,0.327,0.571,0.526,0.475,0.248,0.221,southeast,2.2,No
2015/05/17,09:20,0.538,0.328,0.578,0.531,0.473,0.249,0.221,southeast,1.7,No
2015/05/17,09:30,0.544,0.327,0.573,0.532,0.469,0.250,0.219,southeast,1.4,No
2015/05/17,09:40,0.546,0.326,0.573,0.533,0.470,0.248,0.221,south,0.7,No
2015/05/17,09:50,0.544,0.324,0.578,0.534,0.468,0.248,0.222,west-northwest,2.4,No
2015/05/17,10:00,0.540,0.326,0.576,0.533,0.475,0.248,0.222,west-northwest,3.6,No
2015/05/17,10:10,0.539,0.331,0.571,0.534,0.475,0.250,0.220,west-northwest,4.2,No
2015/05/17,10:20,0.545,0.330,0.569,0.535,0.473,0.249,0.221,northwest,4.4,No
2015/05/17,10:30,0.549,0.327,0.568,0.535,0.471,0.248,0.221,west-northwest,6.5,No
2015/05/17,10:40,0.547,0.326,0.570,0.537,0.471,0.248,0.220,west,5.7,No
2015/05/17,10:50,0.545,0.325,0.572,0.536,0.470,0.248,0.220,west-northwest,6.4,No
2015/05/17,11:00,0.543,0.326,0.572,0.537,0.468,0.249,0.221,west-northwest,7.0,No
2015/05/17,11:10,0.542,0.326,0.571,0.535,0.469,0.251,0.221,west,6.7,No
2015/05/17,11:20,0.542,0.324,0.574,0.536,0.472,0.250,0.222,west,9.0,No
2015/05/17,11:30,0.549,0.325,0.575,0.537,0.472,0.251,0.222,west,8.0,No
2015/05/17,11:40,0.551,0.328,0.578,0.537,0.472,0.250,0.221,west-northwest,5.0,No
2015/05/17,11:50,0.547,0.330,0.576,0.537,0.471,0.249,0.221,west,5.8,No
2015/05/17,12:00,0.546,0.330,0.576,0.537,0.474,0.250,0.221,west,5.0,No
2015/05/17,12:10,0.543,0.329,0.579,0.539,0.472,0.251,0.222,west-southwest,7.9,No
2015/05/17,12:20,0.543,0.328,0.576,0.539,0.471,0.252,0.222,west-southwest,9.2,No
2015/05/17,12:30,0.546,0.328,0.576,0.539,0.472,0.251,0.221,west,9.3,No
2015/05/17,12:40,0.552,0.327,0.580,0.538,0.475,0.252,0.222,west,8.4,No
2015/05/17,12:50,0.549,0.328,0.579,0.538,0.474,0.251,0.221,west,9.1,No
2015/05/17,13:00,0.546,0.328,0.577,0.540,0.474,0.252,0.222,west,8.8,No
2015/05/17,13:10,0.544,0.326,0.580,0.541,0.474,0.252,0.223,west,9.4,No
2015/05/17,13:20,0.547,0.326,0.578,0.539,0.473,0.253,0.223,west,10.4,No
2015/05/17,13:30,0.552,0.326,0.579,0.540,0.476,0.253,0.224,west,9.4,No
2015/05/17,13:40,0.551,0.328,0.576,0.539,0.473,0.252,0.223,west-northwest,8.1,No
2015/05/17,13:50,0.548,0.328,0.579,0.539,0.475,0.252,0.224,northwest,7.3,No
2015/05/17,14:00,0.547,0.328,0.580,0.538,0.477,0.252,0.222,west-northwest,6.6,No
2015/05/17,14:10,0.545,0.326,0.581,0.538,0.475,0.252,0.223,west,7.9,No
2015/05/17,14:20,0.545,0.327,0.579,0.541,0.474,0.252,0.222,west,6.7,No
2015/05/17,14:30,0.547,0.328,0.579,0.539,0.476,0.253,0.223,northwest,6.4,No
2015/05/17,14:40,0.553,0.331,0.576,0.537,0.475,0.252,0.223,west-northwest,6.5,No
2015/05/17,14:50,0.552,0.333,0.579,0.538,0.473,0.252,0.224,west-northwest,7.1,No
2015/05/17,15:00,0.550,0.331,0.579,0.536,0.474,0.253,0.223,northwest,5.7,No
2015/05/17,15:10,0.548,0.330,0.578,0.541,0.475,0.253,0.222,west-northwest,5.1,No
2015/05/17,15:20,0.549,0.331,0.579,0.546,0.474,0.253,0.223,west-northwest,3.6,No
2015/05/17,15:30,0.555,0.329,0.577,0.543,0.477,0.253,0.223,northwest,3.7,No
2015/05/17,15:40,0.552,0.329,0.578,0.537,0.477,0.253,0.222,west-northwest,3.3,No
2015/05/17,15:50,0.546,0.327,0.579,0.539,0.475,0.252,0.224,west,3.0,No
2015/05/17,16:00,0.545,0.332,0.578,0.546,0.475,0.254,0.226,west,4.1,No
2015/05/17,16:10,0.552,0.333,0.586,0.545,0.474,0.253,0.225,west,5.9,No
2015/05/17,16:20,0.554,0.330,0.586,0.538,0.475,0.251,0.223,west,3.9,No
2015/05/17,16:30,0.549,0.329,0.580,0.540,0.475,0.252,0.225,west-northwest,2.0,No
2015/05/17,16:40,0.548,0.333,0.582,0.548,0.474,0.251,0.227,-,CALM,No
2015/05/17,16:50,0.545,0.331,0.588,0.542,0.474,0.252,0.223,-,CALM,No
2015/05/17,17:00,0.554,0.328,0.582,0.540,0.475,0.252,0.226,west,0.5,No
2015/05/17,17:10,0.554,0.331,0.577,0.547,0.474,0.252,0.226,-,CALM,No
2015/05/17,17:20,0.550,0.333,0.586,0.545,0.471,0.250,0.224,west-southwest,1.2,No
2015/05/17,17:30,0.545,0.330,0.588,0.541,0.471,0.251,0.225,west,3.8,No
2015/05/17,17:40,0.554,0.331,0.581,0.546,0.476,0.254,0.225,west,1.4,No
2015/05/17,17:50,0.555,0.331,0.584,0.543,0.481,0.251,0.224,west,1.9,No
2015/05/17,18:00,0.548,0.330,0.589,0.539,0.478,0.253,0.225,west-southwest,2.3,No
2015/05/17,18:10,0.550,0.332,0.582,0.546,0.476,0.251,0.225,west,1.5,No
2015/05/17,18:20,0.552,0.331,0.584,0.542,0.483,0.253,0.225,west,2.2,No
2015/05/17,18:30,0.548,0.331,0.587,0.540,0.480,0.252,0.225,west,5.8,No
2015/05/17,18:40,0.553,0.333,0.579,0.546,0.478,0.252,0.225,west,6.0,No
2015/05/17,18:50,0.551,0.330,0.586,0.540,0.480,0.253,0.225,west,6.9,No
2015/05/17,19:00,0.552,0.334,0.585,0.548,0.475,0.253,0.227,west,6.4,No
2015/05/17,19:10,0.554,0.330,0.582,0.542,0.482,0.252,0.225,west,8.1,No
2015/05/17,19:20,0.549,0.331,0.590,0.547,0.474,0.253,0.225,west,8.4,No
2015/05/17,19:30,0.555,0.331,0.583,0.543,0.482,0.252,0.225,west,7.0,No
2015/05/17,19:40,0.550,0.332,0.586,0.545,0.475,0.253,0.225,west-northwest,5.6,No
2015/05/17,19:50,0.556,0.330,0.586,0.544,0.478,0.252,0.224,west-northwest,8.1,No
2015/05/17,20:00,0.549,0.333,0.581,0.543,0.478,0.253,0.226,west,6.2,No
2015/05/17,20:10,0.550,0.330,0.587,0.547,0.478,0.251,0.225,west,7.5,No
2015/05/17,20:20,0.552,0.333,0.579,0.541,0.478,0.254,0.227,west-northwest,7.5,No
2015/05/17,20:30,0.551,0.330,0.588,0.546,0.478,0.253,0.225,west-northwest,7.6,No
2015/05/17,20:40,0.553,0.332,0.582,0.539,0.480,0.254,0.224,west-northwest,6.4,No
2015/05/17,20:50,0.548,0.330,0.583,0.546,0.475,0.253,0.226,west-northwest,2.2,No
2015/05/17,21:00,0.555,0.332,0.585,0.541,0.479,0.253,0.225,northwest,2.1,No
2015/05/17,21:10,0.549,0.329,0.584,0.545,0.476,0.253,0.226,west-northwest,1.6,No
2015/05/17,21:20,0.554,0.332,0.588,0.542,0.479,0.252,0.225,south-southwest,2.8,No
2015/05/17,21:30,0.549,0.330,0.582,0.545,0.474,0.253,0.226,southwest,3.1,No
2015/05/17,21:40,0.555,0.334,0.589,0.542,0.479,0.253,0.226,southwest,3.3,No
2015/05/17,21:50,0.549,0.331,0.583,0.546,0.476,0.254,0.225,southwest,3.6,No
2015/05/17,22:00,0.553,0.333,0.588,0.540,0.481,0.254,0.226,south-southwest,3.3,No
2015/05/17,22:10,0.549,0.331,0.582,0.547,0.476,0.252,0.226,south,2.2,No
2015/05/17,22:20,0.554,0.332,0.587,0.542,0.479,0.253,0.226,south-southwest,2.1,No
2015/05/17,22:30,0.550,0.331,0.582,0.547,0.478,0.254,0.228,south-southwest,4.4,No
2015/05/17,22:40,0.553,0.331,0.587,0.543,0.478,0.252,0.226,south-southwest,5.5,No
2015/05/17,22:50,0.550,0.332,0.580,0.546,0.477,0.253,0.227,south-southwest,4.7,No
2015/05/17,23:00,0.554,0.332,0.588,0.542,0.479,0.252,0.225,south-southwest,6.2,No
2015/05/17,23:10,0.551,0.333,0.584,0.547,0.477,0.254,0.227,south-southwest,5.7,No
2015/05/17,23:20,0.553,0.330,0.588,0.541,0.477,0.251,0.226,southwest,4.3,No
2015/05/17,23:30,0.551,0.332,0.584,0.549,0.476,0.254,0.226,south-southwest,4.5,No
2015/05/17,23:40,0.552,0.330,0.587,0.541,0.477,0.253,0.226,southwest,4.9,No
2015/05/17,23:50,0.548,0.331,0.584,0.546,0.476,0.253,0.226,southwest,4.3,No
